EDT,Max TemperatureF,Mean TemperatureF,Min TemperatureF,Max Dew PointF,MeanDew PointF,Min DewpointF,Max Humidity, Mean Humidity, Min Humidity, Max Sea Level PressureIn, Mean Sea Level PressureIn, Min Sea Level PressureIn, Max VisibilityMiles, Mean VisibilityMiles, Min VisibilityMiles, Max Wind SpeedMPH, Mean Wind SpeedMPH, Max Gust SpeedMPH,PrecipitationIn, CloudCover, Events, WindDirDegrees
2013-4-1,51,40,28,43,33,13,100,68,35,29.89,29.69,29.58,10,6,0,35,13,45,0.03,6,Fog-Rain,228
2013-4-2,37,31,25,23,18,11,88,62,35,30.03,29.93,29.88,10,6,0,37,15,47,0.03,7,Fog-Snow,284
2013-4-3,41,33,25,21,15,9,69,49,29,30.30,30.12,30.02,10,10,2,30,16,40,T,3,Snow,287
2013-4-4,53,40,26,21,18,16,69,46,22,30.36,30.20,29.98,10,10,10,20,9,25,0.00,3,,217
2013-4-5,53,44,35,28,22,15,70,48,26,30.01,29.90,29.80,10,10,10,28,13,36,T,4,Snow,246
2013-4-6,47,38,28,27,8,1,70,43,16,30.31,30.23,30.02,10,10,10,22,8,28,T,2,Snow,325
2013-4-7,60,44,28,38,25,14,71,47,22,30.25,30.06,29.87,10,10,10,32,13,46,0.01,6,Rain,174
2013-4-8,61,51,40,36,33,28,76,53,29,30.14,30.05,29.94,10,10,10,16,5,23,T,6,,301
2013-4-9,60,55,49,46,42,36,71,57,43,30.05,29.96,29.83,10,10,10,26,11,35,0.09,6,Rain-Thunderstorm,278
2013-4-10,59,52,45,50,46,43,100,84,67,30.01,29.93,29.86,10,6,1,14,4,18,0.70,8,Fog-Rain-Thunderstorm,9
2013-4-11,45,39,32,43,28,19,92,67,41,30.16,30.06,29.90,10,10,5,20,11,26,0.06,8,Rain,23
2013-4-12,41,37,32,36,32,25,92,85,78,30.14,29.94,29.79,10,5,1,13,5,18,0.49,8,Rain,67
2013-4-13,51,44,37,38,36,35,92,77,61,29.94,29.87,29.82,10,7,1,23,4,31,0.01,8,Fog-Rain,228
2013-4-14,47,39,30,36,29,23,85,63,41,30.25,30.09,29.96,10,10,10,21,9,31,0.01,6,Rain,281
2013-4-15,61,44,27,32,28,23,92,62,31,30.38,30.30,30.23,10,10,10,23,8,31,0.00,5,,169
2013-4-16,60,53,46,54,42,28,77,62,46,30.31,30.17,30.03,10,9,4,28,16,38,0.22,7,Rain,188
2013-4-17,64,53,42,38,33,27,71,49,26,30.32,30.25,30.18,10,10,10,18,9,22,0.00,3,,329
2013-4-18,66,51,35,46,34,29,82,55,28,30.35,30.21,30.02,10,10,10,28,12,41,0.00,6,,163
2013-4-19,72,58,44,60,53,39,93,77,61,30.02,29.78,29.52,10,9,2,38,17,52,0.61,8,Rain-Thunderstorm,185
2013-4-20,53,44,34,39,31,20,89,62,35,30.34,29.96,29.76,10,10,6,25,11,33,0.13,6,Rain,289
2013-4-21,51,40,29,21,18,15,58,41,24,30.66,30.56,30.36,10,10,10,17,6,24,0.00,1,,330
2013-4-22,58,44,29,28,20,15,69,44,19,30.71,30.61,30.50,10,10,10,16,6,23,0.00,5,,128
2013-4-23,55,43,30,36,31,24,85,68,50,30.53,30.36,30.15,10,10,10,10,2,16,0.00,5,,182
2013-4-24,73,53,33,49,40,31,96,67,37,30.14,29.90,29.69,10,10,10,25,8,37,0.05,4,Fog,173
2013-4-25,57,47,37,48,30,24,70,50,30,30.27,30.14,29.79,10,10,10,25,10,36,T,4,Rain,304
2013-4-26,58,45,31,36,30,26,82,57,32,30.45,30.40,30.28,10,10,10,17,6,24,T,2,Rain,295
2013-4-27,66,50,33,34,29,22,82,51,20,30.46,30.38,30.28,10,10,10,10,2,17,0.00,3,Fog,335
2013-4-28,74,57,39,38,34,30,92,58,24,30.32,30.23,30.11,10,10,10,18,5,28,0.00,3,,162
2013-4-29,60,55,50,49,40,28,89,62,35,30.23,30.20,30.17,10,10,9,21,10,26,0.03,8,Rain,172
2013-4-30,72,61,49,45,39,28,77,52,27,30.31,30.26,30.22,10,10,10,15,6,21,T,5,Rain,168